Location: Sternwarte auf dem Internationalen Platz Vogelsang IP
(50.5721°N, 6.4398°E)
Time: 08:18:06
(UTC+01:00)

Vanguard 1 - Visible Passes

Search period start: 07 December 2025 00:00
Search period end: 17 December 2025 00:00
Orbit: 650 x 3821 km, 34.2° (Epoch: 06 December)

Date Brightness Start Highest point End Pass type
(mag) Time Alt. Az. Time Alt. Az. Time Alt. Az.
07 Dec 14.3 18:10:54 10° WSW 18:22:11 22° SSW 18:36:31 10° S visible
08 Dec 14.5 18:31:46 10° WSW 18:41:14 17° SW 18:52:40 10° S visible
09 Dec 14.6 18:54:22 10° WSW 19:00:15 12° SW 19:06:49 10° SSW visible
10 Dec 14.3 16:47:36 10° WSW 16:57:33 24° SSW 17:11:21 10° SSE visible
11 Dec 14.5 17:07:53 10° WSW 17:16:43 19° SSW 17:28:17 10° S visible
12 Dec 14.6 17:29:05 10° WSW 17:35:52 14° SW 17:44:03 10° S visible
